Location: Ajisawe
(8.4333°N, 4.3833°E)
Time: 10:22:03
(UTC+00:00)

deb Explorer IX - All Passes

Search period start: 19 April 2021 00:00
Search period end: 29 April 2021 00:00
Orbit: 540 x 1099 km, 38.8° (Epoch: 18 April)

Date Brightness Start Highest point End Pass type
(mag) Time Alt. Az. Time Alt. Az. Time Alt. Az.
19 Apr - 02:42:04 10° S 02:44:56 18° SE 02:47:41 10° E visible
19 Apr - 04:27:41 10° WSW 04:31:28 37° NW 04:35:17 10° NNE visible
19 Apr - 13:28:51 10° NNW 13:35:03 48° NE 13:41:54 10° ESE daylight
19 Apr - 15:16:04 10° WNW 15:22:21 37° SW 15:28:58 10° SSE daylight
20 Apr - 02:18:19 10° S 02:21:18 18° SE 02:24:09 10° E visible
20 Apr - 04:04:03 10° WSW 04:07:52 37° NW 04:11:39 10° NNE visible
20 Apr - 13:05:10 10° NNW 13:11:12 47° NE 13:17:57 10° ESE daylight
20 Apr - 14:52:20 10° WNW 14:58:28 37° SW 15:05:03 10° SSE daylight
21 Apr - 01:54:32 10° S 01:57:40 19° SE 02:00:37 10° E night (unlit)
21 Apr - 03:40:23 10° WSW 03:44:16 37° NW 03:48:01 10° NNE visible
21 Apr - 12:41:30 10° NNW 12:47:22 47° NE 12:54:01 10° ESE daylight
21 Apr - 14:28:37 10° WNW 14:34:37 36° SW 14:41:08 10° SSE daylight
22 Apr - 01:30:44 10° S 01:34:02 19° SE 01:37:06 10° E night (unlit)
22 Apr - 03:16:42 10° WSW 03:20:39 37° NW 03:24:25 10° NNE visible
22 Apr - 12:17:51 10° NNW 12:23:33 46° NE 12:30:03 10° ESE daylight
22 Apr - 14:04:55 10° WNW 14:10:46 36° SW 14:17:11 10° SSE daylight
23 Apr - 01:06:54 10° S 01:10:24 20° SE 01:13:36 10° E night (unlit)
23 Apr - 02:53:00 10° WSW 02:57:03 37° NW 03:00:50 10° NNE visible
23 Apr - 11:54:14 10° NNW 11:59:46 45° NE 12:06:07 10° ESE daylight
23 Apr - 13:41:15 10° WNW 13:46:56 35° SW 13:53:15 10° SSE daylight
24 Apr - 00:43:03 10° S 00:46:45 21° SE 00:50:06 10° E night (unlit)
24 Apr - 02:29:16 10° WSW 02:33:26 37° NW 02:37:15 10° NNE visible
24 Apr - 11:30:39 10° NNW 11:35:59 44° NE 11:42:10 10° ESE daylight
24 Apr - 13:17:36 10° WNW 13:23:07 34° SW 13:29:18 10° SSE daylight
25 Apr - 00:19:11 10° SSW 00:23:05 22° SE 00:26:36 10° E night (unlit)
25 Apr - 02:05:31 10° WSW 02:09:49 38° NW 02:13:42 10° NNE night (unlit)
25 Apr - 11:07:04 10° NNW 11:12:13 44° NE 11:18:13 10° ESE daylight
25 Apr - 12:53:58 10° WNW 12:59:19 33° SW 13:05:21 10° SSE daylight
25 Apr - 23:55:19 10° SSW 23:59:26 23° SE 00:03:07 10° E night (unlit)
26 Apr - 01:41:44 10° WSW 01:46:10 38° NW 01:50:09 10° NNE night (unlit)
26 Apr - 10:43:29 10° NNW 10:48:29 43° NE 10:54:18 10° ESE daylight
26 Apr - 12:30:22 10° WNW 12:35:31 32° SW 12:41:23 10° SSE daylight
26 Apr - 23:31:24 10° SSW 23:35:46 24° SE 23:39:37 10° E night (unlit)
27 Apr - 01:17:56 10° WSW 01:22:33 39° NW 01:26:37 10° NNE night (unlit)
27 Apr - 10:19:56 10° NNW 10:24:45 42° NE 10:30:22 10° ESE daylight
27 Apr - 12:06:48 10° W 12:11:45 31° SW 12:17:25 10° SSE daylight
27 Apr - 23:07:29 10° SSW 23:12:04 25° SE 23:16:07 10° E night (unlit)
28 Apr - 00:54:07 10° WSW 00:58:54 40° NW 01:03:05 10° NNE night (unlit)
28 Apr - 09:56:24 10° NNW 10:01:02 41° NE 10:06:28 10° ESE daylight
28 Apr - 11:43:14 10° W 11:48:00 30° SW 11:53:27 10° SSE daylight
28 Apr - 22:43:34 10° SSW 22:48:22 26° SE 22:52:36 10° E night (unlit)
